Location: B�rgermoos
(47.6500°N, 9.0667°E)
Time: 09:07:54
(UTC+00:00)

A-11 Canister half - Pass Details

Date: 11 August 2021
Orbit: 1526 x 1683 km, 47.3° (Epoch: 20 September)

Event Time Altitude Azimuth Distance (km) Brightness Sun altitude
Rises 08:34:37 0° 237° (WSW) 4,909 11.4 41.6°
Reaches altitude 10° 08:37:47 10° 234° (SW) 3,932 11.0 42.1°
Maximum altitude 08:47:47 68° 155° (SSE) 1,791 10.6 43.6°
Drops below altitude 10° 08:57:47 10° 76° (ENE) 3,924 11.7 45.0°
Sets 09:00:56 0° 74° (ENE) 4,899 12.0 45.4°
